FENGYUN 1C DEB, 32179

Orbit data source: Space-Track

FENGYUN 1C DEB, 32179 is space debris in SSO originally from a launch on Mon, 10 May 1999 UTC launched from the Taiyaun Space Center, China (TSC). Fengyun 1C debris stems from the Chinese weather satellite Fengyun-1C, which was intentionally destroyed by a Chinese anti-satellite missile in 2007. This event dramatically increased the amount of space debris, with thousands of trackable fragments posing hazards to satellites and human spaceflight. The Fengyun 1C debris cloud has become a focal point in discussions about space sustainability and the need for international regulations to prevent the creation of new debris.

Loading next visibility...
Identifier
32179, 1999-025CTZ
Orbit
SSO
Country
Flag of CNCN / PRC
Related business
Manufacturer
Unknown
Mission
Spacecraft
Bus & Motor
Unknown
Mass
Unknown
Launch date (UTC)
1999-05-10 (27 years ago)
Launch vehicle
Unknown
Launch site
Taiyaun Space Center, China (TSC)
Object type
Payload
Rocket body
Debris
Shape & HBR
Unknown shape, 0.1 m
Radar Cross Section
Small (<0.1 m²)

Expand to show TLE details & history
Last TLE update: 13 hours ago

TLE from 13 hours ago
0 FENGYUN 1C DEB
1 32179U 99025CTZ 26254.37633485  .00000327  00000-0  21318-3 0  9995
2 32179  98.8732 302.2916 0145782 149.1003 275.4205 14.03835205695533
Epoch: 2026-09-11T09:01Z
TLE epoch observation values (Epoch: 2026-09-11T09:01:55.331Z)
Latitude
61.64081°
Longitude
159.68999°
Altitude
882.584 km
Speed
7.421 km/s
True Right ascension
19h 02m 17s
True Declination
61° 29' 57"
Sunlit
Object was in daylight at epoch
Visualization orbit readout
Latitude
Unknown
Longitude
Unknown
Altitude
Unknown
Speed
Unknown
Apparent Right ascension
Unknown
Apparent Declination
Unknown
Sunlit
N/A
Visualization observer readout
Local Sidereal Time
14:04:06
Azimuth
Unknown
Elevation
Unknown
Doppler factor
Unknown
Orbital elements
Apogee altitude
983.509 km
Perigee altitude
771.954 km
Semi-major axis
7,255.869 km
Eccentricity
0.01458
Inclination
98.8732°
RAAN
302.2916°
Arg. of periapsis
149.1003°
True anomaly
273.7548°
Mean anomaly
275.4205°
Eccentric anomaly
274.58791°
Mean motion
3.51163 °/min
Orbital period
102.52 mins
BSTAR
0.00021318
Loading maneuver chart data...
Computing Atmospheric mass density...
Loading historical data...
Loading historical data...
Loading historical data...
Loading historical data...
Loading historical data...
Loading historical data...
Loading historical data...

Documentation

Showing up to 5 results
|